Regional Weather Roundup
Issued by NWS Grand Forks, ND

Home | Current Version | Previous Version | Graphics & Text | Print | Product List | Glossary On
Versions: 1 2 3 4 5 6 7 8 9 10 11 12 13 14 15 16 17 18 19 20 21 22 23 24 25 26 27 28 29 30 31 32 33 34 35 36 37 38 39 40 41 42 43 44 45 46 47 48 49 50
000
ASUS43 KFGF 021231
RWRFGF
PRAIRIE TO PINES  WEATHER ROUNDUP
NATIONAL WEATHER SERVICE EASTERN NORTH DAKOTA/GRAND FORKS ND
700 AM CDT TUE SEP 02 2014

 **SATELLITE DATA USED TO AUGMENT SKY COVER AT AUTOMATED STATIONS**
 *****  WEATHER ACROSS EASTERN NORTH DAKOTA  *****

CITY           SKY/WX    TMP DP  RH WIND       PRES   REMARKS
GRAND FORKS    PTCLDY    52  48  86 W6        29.77R
6HR MIN TEMP:  51; 6HR MAX TEMP:  56;

GRAND FRKS AFB PTCLDY    51  51  99 W6        29.77F
GRAND FRKS NWS   N/A     52 N/A N/A W2          N/A
DEVILS LAKE    PTCLDY    57  48  72 SW7       29.77S
6HR MIN TEMP:  54; 6HR MAX TEMP:  59;

FARGO          CLEAR     52  49  89 SW7       29.81R
WAHPETON ARPT  SUNNY     50  46  87 SW3       29.85S
$$

 ***** WEATHER ACROSS CENTRAL AND WESTERN NORTH DAKOTA  *****

CITY           SKY/WX    TMP DP  RH WIND       PRES   REMARKS
BISMARCK       PTCLDY    50  47  89 CALM      29.83F
6HR MIN TEMP:  48; 6HR MAX TEMP:  54;

MINOT          CLOUDY    54  51  90 NE5       29.76F
6HR MIN TEMP:  54; 6HR MAX TEMP:  57; 6HR PCP:  0.01;

JAMESTOWN      PTCLDY    52  49  89 SW6       29.82S
6HR MIN TEMP:  52; 6HR MAX TEMP:  55;

MINOT AFB      CLOUDY    53  53  99 S8        29.75F
GARRISON         N/A     55  52  89 W3        29.79F
WILLISTON      PTCLDY    52  49  89 SW8       29.76F
6HR MIN TEMP:  52; 6HR MAX TEMP:  61; 6HR PCP:  0.02;

DICKINSON      CLEAR     54  44  69 SW16      29.81F
6HR MIN TEMP:  50; 6HR MAX TEMP:  54;

HETTINGER      CLEAR     48  43  82 W3        29.88F
6HR MIN TEMP:  46; 6HR MAX TEMP:  52;

$$

 *****  OTHER AIRPORT OBSERVATIONS IN OUR AREA  *****

CITY           SKY/WX    TMP DP  RH WIND       PRES   REMARKS
WALHALLA         N/A     52  50  93 CALM      29.75S
GRAFTON AIRPOR FAIR      50  50 100 SW8       29.76S
VALLEY CITY AR FAIR      54  54 100 W9        29.83R
CANDO          CLOUDY    52  50  93 W6        29.80R
CAVALIER APRT  FAIR      50  48  93 SW3       29.75S
GWINNER        SUNNY     52  52 100 SW7       29.86S
ROLLA          PTSUNNY   50  50 100 SW7       29.78F
 ***** THE ABOVE OBSERVATIONS ARE NON NWS ARE NOT QUALITY
       CONTROLLED AND MAY MIS-REPORT RAIN FOR SNOW...
$$

  *****  WEATHER ACROSS NORTHERN MINNESOTA  *****

CITY           SKY/WX    TMP DP  RH WIND       PRES   REMARKS
FLAG ISLAND    CLEAR     55  50  82 W7        29.72S
WARROAD        CLEAR     48  45  87 S3        29.75S
ROSEAU         CLEAR     46  43  87 SW5       29.76R
HALLOCK        CLEAR     46  45  93 SE5       29.75S
THF RVR FALLS  CLEAR     48  46  93 S6        29.78S
6HR MIN TEMP:  48; 6HR MAX TEMP:  55;

BAUDETTE       PTCLDY    47  46  97 S5        29.74S
6HR MIN TEMP:  47; 6HR MAX TEMP:  55;

WASKISH        CLEAR     54  52  94 CALM      29.78R
CROOKSTON      PTCLDY    48  46  93 S3        29.79S
$$
  *****  WEATHER ACROSS CENTRAL AND WEST MINNESOTA  *****

CITY           SKY/WX    TMP DP  RH WIND       PRES   REMARKS
FOSSTON        CLEAR     46  46 100 S6        29.81S
BEMIDJI        CLEAR     52  50  93 SW6       29.81R
PARK RAPIDS    CLEAR     51  49  92 CALM      29.83R
6HR MIN TEMP:  48; 6HR MAX TEMP:  52;

ELBOW LAKE     FAIR      50  50  99 SE5       29.86S
6HR MIN TEMP:  50; 6HR MAX TEMP:  57;

WADENA         CLEAR     52  52 100 CALM      29.85R
DETROIT LAKES  CLEAR     55  52  88 CALM      29.85R
MOORHEAD       CLEAR     52  52 100 CALM      29.84R
FERGUS FALLS   CLEAR     52  50  93 S5        29.87R
MORRIS MN      CLEAR     52  50  93 S3        29.87S
STAPLES        CLEAR     46  46 100 CALM      29.86R
$$
  *****  WEATHER ELSEWHERE ACROSS MINNESOTA  *****

CITY           SKY/WX    TMP DP  RH WIND       PRES   REMARKS
DULUTH         PTCLDY    51  48  89 W5        29.82R
6HR MIN TEMP:  51; 6HR MAX TEMP:  58;

INTRNTL FALLS  CLEAR     46  46 100 SW7       29.77R
6HR MIN TEMP:  46; 6HR MAX TEMP:  50;

ELY            CLEAR     50  48  93 CALM      29.80R
CLOQUET        PTCLDY    50  48  93 W5        29.83R
WHEATON        CLEAR     52  52 100 SW5       29.88R
BRAINERD       CLEAR     49  48  97 S3        29.85R
6HR MIN TEMP:  48; 6HR MAX TEMP:  55;

HIBBING        FOG       45  44  97 CALM      29.82R VSB 1/2
6HR MIN TEMP:  42; 6HR MAX TEMP:  51;

ALEXANDRIA     CLEAR     53  51  93 SW6       29.88R
6HR MIN TEMP:  53; 6HR MAX TEMP:  58;

SAINT CLOUD    PTCLDY    56  53  90 CALM      29.86R
6HR MIN TEMP:  56; 6HR MAX TEMP:  62;

MINNEAPOLIS    CLOUDY    62  58  86 SW9       29.87R
6HR MIN TEMP:  62; 6HR MAX TEMP:  66;

$$

  *****  WEATHER ACROSS SOUTH DAKOTA  *****

CITY           SKY/WX    TMP DP  RH WIND       PRES   REMARKS
SIOUX FALLS    CLEAR     53  51  93 S6        29.92S
6HR MIN TEMP:  53; 6HR MAX TEMP:  62; 6HR PCP: TRACE;

BROOKINGS      NOT AVBL
WATERTOWN      CLEAR     51  50  96 S3        29.91R
6HR MIN TEMP:  49; 6HR MAX TEMP:  59;

HURON          FOG       51  50  96 CALM      29.92R VSB 1/2
6HR MIN TEMP:  50; 6HR MAX TEMP:  59;

SISSETON         N/A     54  51  90 W3        29.85S
ABERDEEN       CLEAR     46  46 100 SW5       29.88S
6HR MIN TEMP:  46; 6HR MAX TEMP:  52;

MITCHELL       CLEAR     55  53  93 W5        29.93R
PIERRE         CLEAR     53  51  93 SW9       29.91F
6HR MIN TEMP:  53; 6HR MAX TEMP:  57;

MOBRIDGE       CLEAR     50  49  96 S7        29.86F
RAPID CITY     CLEAR     45  40  82 SW3       29.97S
6HR MIN TEMP:  44; 6HR MAX TEMP:  52;

$$

  *****  SOME WEATHER IN NEARBY STATES *****

CITY           SKY/WX    TMP DP  RH WIND       PRES   REMARKS
GLASGOW MT     PTCLDY    51  44  77 W7        29.79S
6HR MIN TEMP:  51; 6HR MAX TEMP:  62;

GREAT FALLS MT CLOUDY    49  39  68 S8        29.89F
6HR MIN TEMP:  47; 6HR MAX TEMP:  55;

CHEYENNE WY    CLEAR     47  42  83 SW9       30.15F
6HR MIN TEMP:  43; 6HR MAX TEMP:  48;

SCOTTSBLUFF NE CLEAR     43  42  97 E3        30.07S
6HR MIN TEMP:  42; 6HR MAX TEMP:  50;

OMAHA NE       PTCLDY    57  54  89 NW7       29.96R
6HR MIN TEMP:  57; 6HR MAX TEMP:  65;

DES MOINES IA  PTCLDY    62  58  86 NW5       29.92R
6HR MIN TEMP:  61; 6HR MAX TEMP:  67;

DAVENPORT IA   PTCLDY    60  59  96 NW3       29.90R FOG
6HR MIN TEMP:  57; 6HR MAX TEMP:  67;

CHICAGO IL     MOCLDY    68  63  84 CALM      29.87S
6HR MIN TEMP:  67; 6HR MAX TEMP:  71; 6HR PCP:  0.02;

EAU CLAIRE WI  CLOUDY    60  58  92 SW9       29.86R
6HR MIN TEMP:  58; 6HR MAX TEMP:  60;

LA CROSSE WI   CLOUDY    62  60  93 S9        29.87R
6HR MIN TEMP:  61; 6HR MAX TEMP:  64;

$$

  *****  SOME NATIONAL WEATHER *****

CITY           SKY/WX    TMP DP  RH WIND       PRES   REMARKS
LA GUARDIA NY  PTSUNNY   81  72  74 SW6       29.91R
6HR MIN TEMP:  79; 6HR MAX TEMP:  81;

RALEIGH NC     MOSUNNY   74  70  87 SW6       30.08R
6HR MIN TEMP:  71; 6HR MAX TEMP:  78;

ATLANTA GA     MOCLDY    73  70  90 NW6       30.12R
6HR MIN TEMP:  72; 6HR MAX TEMP:  74;

NEW ORLEANS LA MOCLDY    80  76  87 SE3       30.05R
6HR MIN TEMP:  78; 6HR MAX TEMP:  80;

OKLAHOMA CITY  MOCLDY    77  66  69 CALM      29.93R THUNDER
6HR MIN TEMP:  76; 6HR MAX TEMP:  82;

ALBUQUERQUE NM CLEAR     64  40  41 CALM      30.13R
6HR MIN TEMP:  63; 6HR MAX TEMP:  77;

SALT LAKE CITY CLEAR     58  41  53 SE3       30.01S
6HR MIN TEMP:  57; 6HR MAX TEMP:  65;

LOS ANGELES CA MOCLDY    70  62  76 E6        29.85R
6HR MIN TEMP:  68; 6HR MAX TEMP:  70;

BOISE ID       CLEAR     56  35  45 SE9       29.95F



USA.gov is the U.S. government's official web portal to all federal, state and local government web resources and services.